Location: Earls Croome
(52.0667°N, 2.2000°W)
Time: 05:17:44
(UTC+00:00)

USA 234 - Pass Details

Date: 17 November 2019
Orbit: 1099 x 1108 km, 123.0° (Epoch: 09 December)

Event Time Altitude Azimuth Distance (km) Brightness Sun altitude
Rises 05:39:28 0° 94° (E) 3,914 7.9 -17.0°
Reaches altitude 10° 05:41:57 10° 91° (E) 2,958 6.8 -16.6°
Maximum altitude 05:48:23 64° 12° (NNE) 1,210 3.5 -15.6°
Enters shadow 05:53:08 19° 296° (WNW) 2,337 4.4 -14.9°
